Location: Austin
(30.3000°N, 97.7500°W)
Time: 02:57:54
(UTC-05:00)

NOAA 6 - Pass Details

Date: 01 October 2024
Orbit: 769 x 782 km, 98.6° (Epoch: 06 October)

Event Time Altitude Azimuth Distance (km) Brightness Sun altitude
Rises 19:46:30 0° 155° (SSE) 3,232 7.0 -7.5°
Reaches altitude 10° 19:48:50 10° 150° (SSE) 2,310 6.2 -8.0°
Maximum altitude 19:53:47 54° 74° (ENE) 933 4.1 -9.1°
Drops below altitude 10° 19:58:48 10° 358° (N) 2,330 6.6 -10.2°
Sets 20:01:09 0° 354° (N) 3,263 7.4 -10.7°
